Home   Weather   Norrköping   Past weeks

Flag for Sweden Past Weather in Norrköping, Sweden — Yesterday and Last 2 Weeks

Now
43 °F

Light rain. Scattered clouds.


Feels Like: 36 °F
Forecast: 34 / 42 °F
Wind: 12 mph from South

Location: Norrkoping Airport

Current Time: Apr 24, 2017 at 7:44:51 pm

Latest Report: Apr 24, 2017 at 6:50 pm


Visibility: N/A

Pressure: 29.33 "Hg

Humidity: 87%

Dew Point: 39 °F

Location of NorrköpingLocation

Past Weather in Norrköping — Graph

°F

Norrköping Temperature Yesterday

Maximum temperature yesterday: 48 °F (at 11:50 am)
Minimum temperature yesterday: 28 °F (at 3:20 am)
Average temperature yesterday: 39 °F

High & Low Weather Summary for the Past Weeks

 TemperatureHumidityPressure
High57 °F (Apr 9, 6:20 pm)100% (Apr 12, 10:20 am)30.54 "Hg (Apr 12, 10:20 am)
Low16 °F (Apr 15, 5:20 am)25% (Apr 19, 12:20 pm)29.36 "Hg (Apr 24, 5:20 pm)
Average38 °F70%29.86 "Hg
* Reported Apr 9 6:20 pm — Apr 24 6:20 pm, Norrköping, Weather by CustomWeather, © 2017

Note: Actual official high and low records may vary slightly from our data, if they occured in-between our weather recording intervals... More about our weather records

Advertising

Norrköping Weather History for the Previous 24 Hours

Scroll right to see more
 ConditionsComfort  
Time TempWeatherWind HumidityBarometerVisibility
6:20 pm
Mon, Apr 24
43 °FRain. Partly sunny.8 mph87%29.36 "Hg6 mi
5:50 pm43 °FPartly sunny.12 mph87%29.36 "HgN/A
5:20 pm43 °FPartly sunny.12 mph93%29.36 "HgN/A
4:50 pm43 °FPartly sunny.14 mph87%29.39 "HgN/A
4:20 pm41 °FPartly sunny.13 mph87%29.42 "HgN/A
3:50 pm39 °FLight rain. Partly sunny.12 mph93%29.42 "HgN/A
3:20 pm37 °FLight rain. Partly sunny.14 mph93%29.45 "Hg5 mi
2:50 pm37 °FLight rain. Partly sunny.14 mph93%29.47 "Hg5 mi
1:50 pm39 °FLight rain. Cloudy.17 mph81%29.50 "HgN/A
1:20 pm39 °FLight rain. Partly sunny.16 mph81%29.53 "HgN/A
12:50 pm41 °FDrizzle. Partly sunny.20 mph70%29.56 "HgN/A
12:20 pm43 °FDrizzle. Partly sunny.15 mph61%29.56 "HgN/A
11:50 am45 °FMostly cloudy.17 mph53%29.59 "HgN/A
11:20 am45 °FSunny.13 mph46%29.59 "Hg10 mi
10:50 am45 °FSunny.15 mph49%29.62 "Hg10 mi
10:20 am45 °FPassing clouds.9 mph53%29.65 "HgN/A
9:50 am43 °FSunny.7 mph61%29.65 "Hg10 mi
9:20 am41 °FPassing clouds.6 mph66%29.68 "HgN/A
8:50 am39 °FPassing clouds.3 mph65%29.68 "HgN/A
8:20 am39 °FPassing clouds.3 mph61%29.71 "HgN/A
7:50 am37 °FSunny.3 mph65%29.71 "Hg10 mi
7:20 am32 °FSunny.3 mph80%29.71 "Hg10 mi
6:50 am28 °FSunny.3 mph86%29.71 "Hg10 mi
2:50 am28 °FClear.6 mph74%29.77 "Hg10 mi
2:20 am28 °FClear.5 mph69%29.77 "Hg10 mi
1:50 am28 °FClear.3 mph69%29.80 "Hg10 mi
1:20 am32 °FClear.5 mph60%29.80 "Hg10 mi
12:50 am30 °FClear.7 mph69%29.80 "Hg10 mi
12:20 am32 °FClear.5 mph60%29.80 "Hg10 mi
11:50 pm
Sun, Apr 23
32 °FClear.6 mph64%29.80 "Hg10 mi
11:20 pm32 °FClear.7 mph60%29.80 "Hg10 mi
10:50 pm34 °FClear.6 mph60%29.80 "Hg10 mi
10:20 pm34 °FClear.6 mph60%29.80 "Hg10 mi
9:50 pm36 °FClear.8 mph56%29.80 "Hg10 mi
9:20 pm36 °FClear.6 mph56%29.80 "Hg10 mi
8:50 pm37 °FClear.3 mph48%29.77 "Hg10 mi
8:20 pm43 °FSunny.5 mph39%29.77 "Hg10 mi
7:50 pm45 °FSunny.10 mph34%29.77 "Hg10 mi
7:20 pm45 °FSunny.12 mph37%29.77 "Hg10 mi
Weather by CustomWeather, © 2017

See weather overviewHow to use our weather pages